Sydney, New South Wales

8:58 AM AEDT on February 13, 2016 (GMT +1100)
Sydney

Weather History for 94767 - August, 2013

Change the Weather History Date:

Monday, August 19, 2013

  Actual Average Record
Temperature  
Mean Temperature 60 °F -  
Max Temperature 71 °F 68 °F - ()
Min Temperature 50 °F 49 °F - ()
Degree Days  
Heating Degree Days 4    
Growing Degree Days 10 (Base 50)    
Moisture  
Dew Point 30 °F    
Average Humidity 30    
Maximum Humidity 49    
Minimum Humidity 9    
Precipitation  
Precipitation 0.00 in 0.09 in - ()
Sea Level Pressure  
Sea Level Pressure 29.81 in    
Wind  
Wind Speed 14 mph ()    
Max Wind Speed 32 mph    
Max Gust Speed 41 mph    
Visibility 15.8 miles    
Events      
T = Trace of Precipitation, MM = Missing Value Source: Averaged Metar Reports

Daily Weather History Graph

Daily Weather History Graph

Search for Another Location

Airport or City:

Trip Planner

Search our weather history database for the weather conditions in past years. The results will help you decide how hot, cold, wet, or windy it might be!

Date:

Astronomy

Aug. 19, 2013 Rise Set
Actual Time 6:30 AM AEST 5:28 PM AEST
Civil Twilight 6:04 AM AEST 5:53 PM AEST
Nautical Twilight 5:35 AM AEST 6:23 PM AEST
Astronomical Twilight 5:06 AM AEST 6:52 PM AEST
Moon 3:30 PM AEST (8/19) 4:31 AM AEST (8/19)
Length of Visible Light 11h 49m
Length of Day
10h 58m
Waxing Gibbous, 94% of the Moon is Illuminated
Aug 19
Waxing Gibbous
Aug 21
Full
Aug 28
Last Quarter
Sep 5
New
Sep 13
First Quarter

Hourly Weather History & Observations

Time (AEST) Temp. Dew Point Humidity Pressure Visibility Wind Dir Wind Speed Gust Speed Precip Events Conditions
12:00 AM 61 °F 26 °F 16% 29.87 in 25 mi North 16.1 mph - -   Partly Cloudy
12:00 AM 60.8 °F 26.6 °F 27% 29.86 in - North 16.1 mph - N/A   Clear
12:30 AM 59.0 °F 26.6 °F 29% 29.86 in - North 16.1 mph - N/A   Clear
1:00 AM 59 °F 27 °F 18% 29.85 in - North 15.0 mph - -  
1:00 AM 59.0 °F 26.6 °F 29% 29.83 in - North 15.0 mph - N/A   Clear
1:30 AM 57.2 °F 28.4 °F 33% 29.83 in - North 12.7 mph - N/A   Clear
2:00 AM 58 °F 27 °F 19% 29.83 in - North 12.7 mph - -  
2:00 AM 57.2 °F 26.6 °F 31% 29.83 in - North 12.7 mph - N/A   Clear
2:30 AM 59.0 °F 26.6 °F 29% 29.80 in - North 15.0 mph - N/A   Clear
3:00 AM 57 °F 27 °F 20% 29.81 in 25 mi North 12.7 mph - -   Partly Cloudy
3:00 AM 57.2 °F 26.6 °F 31% 29.80 in - North 12.7 mph - N/A   Clear
3:30 AM 55.4 °F 28.4 °F 36% 29.80 in - North 11.5 mph - N/A   Clear
4:00 AM 57.2 °F 26.6 °F 31% 29.77 in - North 12.7 mph - N/A   Clear
4:30 AM 57.2 °F 24.8 °F 29% 29.77 in - North 12.7 mph - N/A   Clear
5:00 AM 59 °F 25 °F 16% 29.79 in - NNE 10.4 mph - -  
5:00 AM 59.0 °F 24.8 °F 27% 29.77 in - NNE 10.4 mph - N/A   Clear
5:30 AM 59.0 °F 26.6 °F 29% 29.77 in - NNE 11.5 mph - N/A   Clear
6:00 AM 58 °F 29 °F 21% 29.81 in 19 mi NNE 8.1 mph - -   Partly Cloudy
6:00 AM 59.0 °F 28.4 °F 31% 29.80 in - NNE 8.1 mph - N/A   Clear
6:30 AM 59.0 °F 26.6 °F 29% 29.80 in - NNE 9.2 mph - N/A   Clear
7:00 AM 61 °F 26 °F 15% 29.81 in - NNE 8.1 mph - -  
7:00 AM 60.8 °F 26.6 °F 27% 29.80 in - NNE 8.1 mph - N/A   Clear
7:30 AM 60.8 °F 28.4 °F 29% 29.80 in - NNE 10.4 mph - N/A   Clear
8:00 AM 62.6 °F 26.6 °F 26% 29.80 in - North 10.4 mph - N/A   Clear
8:30 AM 64.4 °F 28.4 °F 26% 29.80 in - NNW 9.2 mph - N/A   Clear
9:00 AM 65 °F 28 °F 14% 29.81 in 16 mi North 8.1 mph - -   Haze
9:00 AM 66.2 °F 28.4 °F 24% 29.80 in - North 8.1 mph - N/A   Clear
9:30 AM 66.2 °F 28.4 °F 24% 29.80 in - NNW 8.1 mph - N/A   Clear
10:00 AM 63 °F 43 °F 37% 29.80 in - SW 9.2 mph - -  
10:00 AM 62.6 °F 42.8 °F 48% 29.80 in - SW 9.2 mph - N/A   Clear
10:30 AM 62.6 °F 39.2 °F 42% 29.77 in - SW 10.4 mph - N/A   Clear
11:00 AM 67 °F 35 °F 20% 29.78 in - SW 10.4 mph - -  
11:00 AM 68.0 °F 35.6 °F 30% 29.77 in - SW 10.4 mph - N/A   Clear
11:30 AM 64.4 °F 41.0 °F 42% 29.77 in - South 8.1 mph - N/A   Clear
12:00 PM 66 °F 41 °F 28% 29.77 in 19 mi South 10.4 mph - -   Partly Cloudy
12:00 PM 66.2 °F 41.0 °F 40% 29.74 in - South 10.4 mph - N/A   Clear
12:30 PM 64.4 °F 44.6 °F 49% 29.74 in - SSE 10.4 mph - N/A   Clear
1:00 PM 71 °F 31 °F 13% 29.75 in - WNW 15.0 mph - -  
1:00 PM 69.8 °F 30.2 °F 23% 29.74 in - WNW 15.0 mph - N/A   Clear
1:30 PM 69.8 °F 30.2 °F 23% 29.74 in - West 15.0 mph - N/A   Clear
2:00 PM 68.0 °F 24.8 °F 20% 29.74 in - West 20.7 mph 32.2 mph N/A   Clear
2:30 PM 68.0 °F 21.2 °F 17% 29.74 in - WNW 23.0 mph - N/A   Clear
3:00 PM 68 °F 22 °F 9% 29.74 in 19 mi West 23.0 mph - -   Partly Cloudy
3:00 PM 68.0 °F 23.0 °F 18% 29.74 in 6.2 mi West 23.0 mph - N/A   Unknown
3:16 PM 66.2 °F 24.8 °F 21% 29.74 in - WSW 21.9 mph - N/A   Clear
3:30 PM 62.6 °F 30.2 °F 30% 29.74 in - WSW 20.7 mph - N/A   Clear
4:00 PM 63 °F 29 °F 17% 29.76 in - WSW 24.2 mph - -  
4:00 PM 62.6 °F 28.4 °F 27% 29.74 in - WSW 24.2 mph - N/A   Clear
4:30 PM 60.8 °F 28.4 °F 29% 29.77 in - WSW 24.2 mph - N/A   Clear
5:00 PM 59 °F 30 °F 21% 29.80 in - WSW 23.0 mph - -  
5:00 PM 59.0 °F 30.2 °F 34% 29.77 in - WSW 23.0 mph - N/A   Clear
5:04 PM 59.0 °F 28.4 °F 31% 29.80 in - West 24.2 mph 36.8 mph N/A   Clear
5:30 PM 59.0 °F 26.6 °F 29% 29.80 in - West 25.3 mph - N/A   Clear
5:44 PM 57.2 °F 26.6 °F 31% 29.80 in - West 24.2 mph 36.8 mph N/A   Clear
6:00 PM 58 °F 26 °F 18% 29.83 in 22 mi West 25.3 mph - -   Partly Cloudy
6:00 PM 57.2 °F 26.6 °F 31% 29.83 in - West 25.3 mph - N/A   Clear
6:30 PM 57.2 °F 35.6 °F 44% 29.83 in - SW 18.4 mph - N/A   Clear
7:00 PM 55 °F 33 °F 32% 29.87 in - WSW 20.7 mph - -  
7:00 PM 55.4 °F 33.8 °F 44% 29.86 in - WSW 20.7 mph - N/A   Clear
7:30 PM 53.6 °F 32.0 °F 44% 29.89 in - WSW 23.0 mph - N/A   Clear
8:00 PM 53 °F 32 °F 32% 29.90 in - West 18.4 mph - -  
8:00 PM 53.6 °F 32.0 °F 44% 29.89 in - West 18.4 mph - N/A   Clear
8:07 PM 53.6 °F 32.0 °F 44% 29.89 in - West 18.4 mph 31.1 mph N/A   Clear
8:30 PM 53.6 °F 32.0 °F 44% 29.89 in - West 20.7 mph - N/A   Clear
9:00 PM 52 °F 31 °F 32% 29.89 in 25 mi West 27.6 mph - -   Partly Cloudy
9:00 PM 51.8 °F 30.2 °F 44% 29.89 in - West 27.6 mph - N/A   Clear
9:30 PM 51.8 °F 30.2 °F 44% 29.86 in - West 27.6 mph - N/A   Clear
9:50 PM 51.8 °F 30.2 °F 44% 29.86 in - West 28.8 mph 41.4 mph N/A   Clear
10:00 PM 52 °F 30 °F 30% 29.89 in - West 32.2 mph - -  
10:30 PM 51.8 °F 30.2 °F 44% 29.86 in - WNW 19.6 mph - N/A   Clear
11:00 PM 51 °F 29 °F 31% 29.86 in - WNW 26.5 mph - -  
11:00 PM 50.0 °F 28.4 °F 43% 29.86 in - WNW 26.5 mph - N/A   Clear
11:30 PM 50.0 °F 28.4 °F 43% 29.86 in - West 23.0 mph - N/A   Clear